Vertical_Velocity
1 2 4 6 5 4 2 0 -1 -2 -2 -2 -3 -4 -4 -2 -1 -1 -2 -2 -2 -2 -1 -1 -1 -1 0 2 4 5 6 6 8 9 11 13 12 11 10 10 8 7 6 6 6 5 5 5 4 4 6 10 7 4 3 5 7 6 3 -1 -1 0 3 6 5 5 5 5 4
1 3 6 7 6 4 3 1 -1 -2 -3 -3 -4 -4 -4 -3 -1 -1 -1 -1 -1 -1 -2 -1 -1 -1 -1 0 3 5 6 7 7 9 11 12 9 9 10 12 13 12 9 7 5 3 3 5 5 4 4 4 3 2 1 1 5 6 3 -3 -4 -2 1 4 4 5 6 5 4
2 4 6 6 5 4 2 -1 -2 -3 -3 -4 -4 -5 -4 -3 -2 -1 -1 0 1 0 -1 -3 -2 0 2 2 4 6 8 9 8 8 8 7 6 7 10 15 17 15 11 6 4 3 2 3 2 2 2 2 3 2 2 2 5 4 0 -6 -5 -2 3 5 6 6 5 4 3
2 3 4 4 3 2 1 -1 -1 -2 -2 -2 -4 -4 -4 -3 -2 -1 -1 0 1 1 -0 -3 -1 2 4 3 4 6 9 11 11 9 7 5 6 7 11 16 15 13 11 9 6 3 1 1 1 1 2 3 4 4 4 3 4 1 -4 -7 -3 1 5 6 6 5 4 1 -0
1 2 3 3 3 2 2 1 0 -0 -0 -1 -2 -3 -3 -3 -2 -2 -2 -0 0 0 -0 -1 -0 -0 -0 1 3 4 6 10 13 13 11 11 13 15 16 16 13 11 11 11 7 4 1 1 1 1 0 1 3 5 5 5 2 -2 -5 -3 2 4 5 5 4 3 1 -1 -3
2 3 4 4 4 4 3 2 1 1 1 -1 -1 -2 -1 -2 -2 -2 -2 -0 0 0 0 1 1 -1 -4 -3 3 7 9 11 12 13 16 20 18 17 16 14 10 9 10 9 5 2 0 -0 0 -0 -1 -0 2 4 5 5 0 -2 -1 4 4 4 4 3 2 1 0 -1 -3
3 4 5 4 4 4 4 3 2 1 1 -0 -1 -1 -1 -1 -1 -1 -1 0 1 -0 -1 0 1 -1 -2 -2 4 6 7 9 12 15 17 19 15 13 11 9 8 9 10 9 5 1 -0 0 1 0 -0 0 2 3 2 2 1 2 5 6 4 4 4 3 2 1 1 -1 -3
3 4 4 4 4 4 4 2 1 1 1 1 1 0 0 -0 -0 -0 0 0 0 -0 -1 -0 -1 -0 4 15 15 7 -1 -1 9 15 15 11 8 7 6 4 4 7 9 8 4 1 -0 1 2 1 0 -0 0 1 2 4 6 6 6 5 4 3 4 3 3 2 1 -1 -4
3 3 4 4 4 4 3 1 -0 -0 1 3 2 1 -1 -2 -1 -0 0 1 1 1 1 0 -2 0 9 25 25 15 5 5 13 14 10 4 3 3 1 0 1 4 6 7 4 1 0 1 1 0 -1 -1 1 3 5 7 8 7 4 4 3 3 3 3 3 2 0 -2 -4
2 3 4 4 3 3 2 -0 -1 -0 1 3 3 1 -2 -4 -3 -1 0 1 1 1 1 -1 -2 0 5 12 17 17 16 17 15 10 4 0 1 0 -0 -1 0 2 4 5 4 2 1 1 0 -1 -2 0 5 6 6 7 7 6 4 3 3 2 3 4 3 2 -1 -3 -4
3 4 4 4 3 2 1 0 -1 -0 0 1 1 -1 -3 -4 -4 -2 -0 1 1 1 -0 -2 -0 2 2 -1 2 7 12 15 11 6 1 -2 -0 1 1 1 1 3 3 3 3 3 2 1 -1 -2 -1 1 6 7 7 6 6 5 3 2 3 4 4 4 3 1 -1 -3 -3
3 3 3 3 2 2 1 1 0 -0 -0 -0 -1 -1 -2 -2 -1 -1 -1 0 1 1 -0 -2 -0 2 4 2 3 4 6 7 7 6 3 0 1 1 2 1 2 3 3 2 2 2 1 -0 -2 -1 1 4 6 7 6 5 5 4 3 1 4 6 6 4 2 -0 -1 -2 -2
2 1 1 2 2 2 1 1 1 0 -0 -1 -1 -2 -1 -0 1 1 -0 -1 0 1 0 -1 -0 1 2 4 7 7 5 4 4 4 4 4 3 1 -0 -1 2 4 4 2 2 1 0 -1 -2 0 3 6 6 6 6 4 4 3 3 3 6 6 5 3 1 -0 -1 -1 -1
2 1 0 0 1 2 2 2 1 1 1 0 -1 -1 -1 -0 1 1 0 0 1 1 1 0 2 2 2 -1 2 4 7 6 3 2 3 7 6 2 -0 1 5 5 4 1 1 1 -0 -2 -1 1 4 6 6 5 5 4 4 4 4 6 6 5 4 2 1 -0 -0 -1 -1
3 2 1 0 1 1 2 2 2 2 2 1 0 0 0 0 0 0 1 1 1 2 2 2 4 5 4 -0 -3 -1 3 8 7 4 3 6 5 4 5 8 8 6 3 1 1 0 -1 -2 -1 2 5 6 6 5 5 5 5 5 6 7 5 4 3 1 0 -0 -0 -0 0
4 3 2 1 1 1 1 1 2 2 3 2 2 3 3 3 2 2 3 3 3 2 3 3 4 3 1 -1 -3 -3 -0 7 10 9 5 0 1 6 12 14 10 6 3 1 0 -1 -1 -1 1 4 6 6 6 5 5 5 6 6 6 6 4 3 2 1 -0 -1 -0 0 1
4 3 3 2 1 0 -0 0 1 2 3 4 4 5 5 5 4 5 5 5 4 3 2 2 2 1 -0 -3 -4 -3 -0 7 11 9 4 -3 0 9 16 15 9 5 2 0 -1 -2 -1 1 4 6 7 6 5 4 4 5 6 6 5 4 4 3 1 -0 -1 -1 0 1 0
3 3 3 3 1 0 -0 -0 1 2 3 4 5 6 6 6 6 5 5 4 3 2 1 0 -0 -0 -1 -2 -4 -2 2 9 9 5 1 -2 4 11 15 11 6 3 1 -1 -1 -0 1 5 6 7 6 5 4 4 4 6 6 5 5 4 2 1 -0 -1 -1 -0 0 0 0
2 3 3 3 1 0 0 1 2 3 3 4 6 6 7 6 5 5 4 2 1 0 -1 -1 -1 -1 -0 -1 -1 1 5 10 6 2 -1 1 7 10 10 6 3 1 -0 -0 1 2 4 6 6 6 5 4 4 4 5 6 6 5 4 3 1 -0 -1 -2 -1 -0 0 0 1
2 3 3 2 1 1 2 2 3 3 3 4 6 6 6 5 4 3 2 -0 -1 -1 -1 -2 -2 -0 1 3 3 5 8 11 6 1 0 5 8 8 5 2 1 1 1 1 3 4 6 6 5 5 4 4 4 5 6 6 6 4 3 2 1 -1 -2 -2 -1 -0 1 1 2
1 2 2 1 1 2 3 3 2 2 3 4 5 5 5 4 2 1 -0 -2 -1 -1 -1 -2 -1 1 4 6 6 8 10 11 6 5 6 9 6 4 1 0 1 2 3 3 4 5 6 5 4 4 4 4 6 6 6 5 4 3 3 2 -0 -2 -2 -2 -1 0 1 2 3
-0 0 0 1 2 3 3 2 2 2 3 4 4 3 3 2 0 -1 -2 -2 -1 -2 -2 -2 1 4 5 4 5 8 11 11 10 10 9 6 2 0 0 1 3 3 4 4 5 6 5 4 4 4 5 6 7 6 5 4 3 2 2 1 -1 -2 -2 -1 -0 1 1 2 2
-1 -1 -1 0 2 2 2 2 2 2 3 3 2 2 1 -0 -1 -2 -2 -1 -1 -2 -2 -1 3 3 2 2 6 10 13 13 13 11 7 1 -0 0 1 3 4 4 4 4 5 5 4 3 4 5 6 8 7 5 3 2 3 2 1 -1 -2 -2 -1 -0 0 1 1 1 1
-1 -1 -1 0 1 2 1 1 2 2 2 2 1 0 -0 -1 -2 -2 -2 -1 -2 -2 -1 0 1 1 1 3 9 13 14 14 11 7 2 -0 1 2 3 4 4 4 4 4 4 3 3 4 5 6 7 7 5 3 2 2 3 1 -1 -3 -2 -1 -1 0 1 1 1 0 0
-1 -1 -1 -0 1 1 1 1 2 2 1 1 0 -1 -1 -2 -2 -2 -2 -2 -2 -2 -1 -0 -0 0 2 7 12 14 13 10 6 2 1 2 3 4 5 5 4 4 3 2 2 3 4 6 7 8 7 6 4 3 3 3 1 -1 -2 -3 -2 -1 0 1 1 1 1 0 0
-1 -1 -1 -1 -0 0 1 1 1 1 1 0 -1 -1 -2 -3 -3 -3 -3 -3 -3 -2 -1 -1 -0 2 6 11 13 12 9 5 1 1 1 3 4 5 5 4 3 2 2 2 3 5 7 9 9 8 7 5 4 4 3 1 -1 -3 -3 -3 -2 -0 1 1 0 0 0 0 1
-1 -1 -1 -1 -0 0 0 1 1 1 1 -0 -1 -2 -3 -3 -3 -3 -3 -3 -3 -2 -1 -0 2 6 10 12 11 8 4 1 0 1 3 4 5 4 4 2 1 1 2 3 6 8 9 10 9 8 6 5 4 2 0 -1 -2 -3 -3 -3 -1 0 1 1 0 -0 -0 0 1
-1 -1 -1 -1 -0 -0 0 1 1 1 1 0 -0 -1 -2 -2 -3 -3 -3 -3 -2 -1 0 2 5 8 10 11 8 4 1 -1 1 2 3 4 4 3 1 0 1 2 4 7 9 10 10 9 7 6 4 3 1 -0 -1 -1 -2 -2 -2 -1 0 1 1 1 1 1 2 1 1
-0 -0 -0 -0 0 0 1 1 1 1 1 1 1 -0 -1 -3 -4 -4 -4 -3 0 2 4 4 6 8 9 9 5 2 -0 0 1 2 3 3 1 0 0 0 2 5 7 10 10 9 8 6 5 3 2 0 -1 -2 -2 -2 -1 -1 -1 0 1 2 3 3 3 3 3 2 1
0 0 1 1 1 1 1 1 1 1 1 1 1 -1 -2 -4 -5 -4 -2 1 3 4 5 5 6 7 8 6 3 1 1 1 1 2 2 1 1 1 2 3 6 8 9 10 9 7 5 4 3 1 -0 -2 -3 -3 -3 -2 -1 -1 0 2 3 4 4 3 3 3 3 2 1
1 1 1 1 1 1 1 1 1 1 1 1 -0 -2 -4 -4 -4 -1 2 5 6 5 5 5 7 8 6 3 2 1 1 1 2 2 2 2 3 4 5 7 9 10 9 8 6 4 3 2 1 -0 -2 -3 -3 -2 -2 -1 -1 1 2 3 4 4 4 3 3 2 1 1 0
2 2 1 1 1 1 1 1 2 2 1 -1 -2 -3 -3 -2 -1 2 5 7 6 6 6 8 8 6 4 2 1 1 1 2 3 4 4 5 6 7 9 10 11 10 8 6 4 3 2 2 1 -1 -1 -2 -1 -1 -1 -0 1 2 3 4 3 3 3 2 1 1 0 -0 0
2 2 1 1 1 1 2 3 2 0 -1 -3 -3 -2 -1 0 2 4 6 5 5 7 9 10 8 5 2 0 1 2 4 5 5 6 6 7 8 10 11 11 9 7 5 4 3 2 2 1 1 -0 -1 -1 -1 -1 -0 0 1 2 3 3 3 3 2 1 0 -0 -0 -0 0
1 0 0 1 2 3 3 2 0 -2 -3 -3 -1 0 1 2 4 6 6 6 8 10 10 8 5 2 1 1 3 5 6 6 7 8 9 10 11 11 10 7 5 4 3 2 1 1 0 0 0 0 -0 -1 -1 -1 0 1 2 2 3 3 2 2 1 0 -0 -1 -0 -0 0
1 1 1 2 3 3 2 -0 -1 -1 -1 0 2 3 4 5 6 8 10 11 11 10 6 3 0 -0 1 2 5 7 8 9 9 10 11 11 10 8 5 2 2 1 1 1 -0 -1 -1 -0 0 0 -0 -1 -1 0 1 2 2 2 2 2 1 1 -0 -0 -0 -0 -0 -0 0
4 4 3 3 1 0 -1 -1 0 1 2 2 4 6 9 10 11 11 11 11 8 5 2 -1 -1 0 2 4 6 8 9 10 10 10 9 8 6 4 2 1 1 0 0 -1 -1 -1 -0 1 1 -0 -1 -1 0 1 1 2 1 1 1 1 0 -0 -0 -0 -0 -0 -0 -0 0
3 3 2 1 0 0 1 3 4 5 5 6 8 11 13 14 13 11 8 6 4 2 0 0 2 4 6 8 9 9 10 10 9 8 6 4 3 1 1 0 -0 -1 -1 -1 -0 0 1 1 0 -0 -0 0 1 1 1 0 0 0 0 -0 -0 -0 -0 -0 -1 -1 -1 -1 -0
1 1 1 2 2 2 4 6 7 8 10 11 13 13 12 10 8 6 5 3 2 2 2 4 7 9 10 11 10 10 9 8 6 4 3 2 1 0 -0 -1 -1 -1 -0 0 1 1 1 1 1 1 1 1 -0 -1 -1 -0 -0 0 0 -0 -0 -1 -1 -1 -1 -1 -1 -1 -1
4 4 4 5 6 7 8 9 11 12 13 14 12 9 6 5 4 3 3 3 3 5 7 9 11 11 11 10 9 8 7 5 3 2 1 0 -0 -1 -1 -1 -1 -1 -0 0 -0 -0 -0 1 1 1 0 -1 -1 -1 -0 0 0 0 -0 -0 -1 -1 -1 -1 -1 -1 -1 -2 -1
11 10 9 9 10 10 11 13 14 14 13 10 7 5 4 4 4 4 4 5 7 9 11 12 11 10 9 7 7 5 4 3 1 0 -0 -1 -1 -1 -1 -1 -1 -1 -1 -1 -1 -1 -0 1 1 0 -0 -0 -0 0 0 1 0 -0 -0 -0 -1 -1 -2 -3 -2 -1 -1 -2 -1
9 8 7 7 8 9 11 12 12 11 9 7 6 6 6 6 7 8 8 9 9 10 10 9 8 7 6 5 4 3 2 1 0 -0 -0 -0 -0 -1 -1 -1 -1 -1 -1 -1 -1 -1 -1 -0 0 1 1 1 1 0 0 0 -0 -1 -1 -0 -1 -1 -2 -3 -3 -2 -2 -2 -2
Height
3052 3054 3055 3058 3060 3061 3063 3064 3065 3066 3067 3068 3069 3070 3070 3071 3072 3073 3074 3075 3077 3078 3080 3081 3082 3083 3084 3085 3085 3086 3087 3088 3088 3088 3087 3087 3087 3087 3087 3087 3087 3087 3088 3088 3089 3090 3090 3090 3089 3090 3090 3090 3090 3090 3090 3090 3091 3091 3092 3092 3092 3092 3091 3090 3089 3088 3088 3087 3087
3050 3051 3053 3055 3057 3059 3060 3062 3063 3064 3065 3066 3066 3067 3068 3069 3070 3071 3072 3073 3074 3075 3076 3078 3079 3079 3080 3081 3082 3082 3083 3084 3085 3084 3084 3084 3085 3085 3085 3084 3084 3085 3085 3086 3087 3088 3088 3088 3087 3088 3088 3088 3088 3089 3089 3089 3089 3089 3089 3090 3090 3090 3089 3088 3087 3086 3086 3086 3086
3047 3049 3051 3053 3055 3056 3058 3059 3060 3061 3062 3063 3064 3065 3065 3066 3067 3068 3069 3070 3071 3073 3074 3074 3074 3075 3076 3077 3078 3078 3079 3080 3081 3081 3081 3082 3082 3082 3082 3082 3082 3082 3083 3085 3085 3086 3086 3086 3086 3086 3087 3087 3087 3087 3086 3086 3086 3087 3087 3087 3087 3087 3086 3085 3085 3084 3084 3084 3084
3045 3047 3049 3050 3052 3054 3055 3056 3058 3059 3060 3061 3062 3062 3063 3064 3065 3066 3066 3068 3069 3070 3070 3071 3070 3071 3073 3074 3075 3075 3075 3076 3077 3078 3079 3079 3079 3080 3080 3080 3080 3081 3082 3082 3083 3084 3084 3084 3085 3085 3085 3085 3085 3085 3085 3084 3084 3085 3085 3085 3085 3084 3084 3083 3083 3082 3082 3082 3081
3043 3045 3046 3048 3050 3052 3053 3055 3055 3057 3058 3059 3059 3060 3061 3062 3063 3063 3064 3065 3066 3067 3067 3067 3068 3069 3071 3071 3071 3073 3074 3074 3074 3075 3076 3077 3077 3077 3077 3078 3078 3079 3080 3080 3080 3081 3082 3082 3082 3082 3082 3083 3083 3083 3083 3082 3083 3083 3083 3082 3082 3082 3081 3081 3080 3080 3080 3079 3079
3042 3043 3045 3046 3048 3049 3051 3052 3053 3054 3055 3056 3056 3057 3059 3060 3060 3061 3062 3062 3063 3064 3064 3065 3066 3067 3068 3068 3068 3070 3071 3071 3072 3073 3073 3074 3074 3075 3075 3076 3076 3077 3078 3078 3079 3079 3080 3080 3080 3080 3080 3080 3081 3081 3081 3081 3081 3081 3080 3080 3080 3079 3079 3079 3078 3078 3077 3077 3077
3040 3041 3043 3044 3045 3047 3048 3049 3050 3051 3052 3053 3054 3055 3056 3057 3058 3059 3060 3060 3061 3061 3062 3063 3064 3065 3066 3066 3067 3068 3069 3069 3069 3070 3071 3071 3072 3073 3074 3074 3075 3075 3076 3076 3077 3077 3077 3078 3078 3078 3078 3078 3079 3079 3079 3079 3079 3078 3078 3077 3077 3077 3077 3076 3075 3075 3075 3075 3075
3039 3040 3041 3042 3043 3045 3045 3046 3047 3048 3049 3050 3052 3053 3054 3055 3056 3056 3057 3058 3058 3059 3060 3060 3062 3063 3063 3064 3065 3066 3067 3067 3067 3068 3069 3070 3071 3071 3072 3073 3073 3074 3074 3075 3075 3075 3075 3075 3075 3076 3076 3076 3077 3077 3077 3077 3076 3076 3075 3075 3075 3075 3074 3074 3073 3073 3073 3072 3072
3037 3038 3039 3040 3041 3042 3043 3044 3045 3045 3047 3048 3050 3050 3051 3052 3053 3054 3055 3055 3056 3057 3057 3059 3060 3060 3060 3060 3061 3063 3064 3065 3065 3066 3067 3069 3070 3070 3070 3071 3071 3071 3072 3072 3073 3073 3073 3073 3074 3074 3074 3074 3074 3074 3074 3074 3073 3073 3073 3073 3072 3072 3071 3071 3071 3070 3070 3070 3070
3035 3036 3037 3038 3039 3040 3040 3041 3042 3043 3045 3046 3047 3048 3049 3050 3051 3052 3052 3053 3054 3055 3055 3056 3056 3056 3056 3057 3058 3060 3061 3062 3063 3064 3065 3066 3067 3068 3068 3069 3069 3069 3069 3070 3071 3071 3071 3071 3071 3071 3071 3072 3071 3071 3072 3071 3071 3070 3070 3070 3070 3070 3069 3069 3068 3068 3068 3067 3067
3033 3034 3035 3035 3036 3037 3038 3039 3040 3041 3042 3044 3045 3045 3046 3047 3048 3049 3050 3051 3051 3052 3053 3054 3053 3053 3055 3056 3057 3058 3060 3060 3061 3061 3063 3064 3065 3065 3066 3066 3066 3066 3067 3068 3069 3069 3069 3069 3069 3069 3069 3070 3070 3069 3069 3069 3069 3068 3068 3067 3067 3067 3066 3066 3066 3066 3065 3065 3065
3031 3031 3032 3033 3034 3035 3036 3037 3038 3039 3040 3041 3042 3043 3044 3045 3046 3047 3048 3049 3049 3050 3051 3051 3052 3052 3054 3056 3056 3057 3058 3059 3060 3060 3061 3061 3062 3062 3063 3063 3063 3064 3065 3066 3066 3066 3066 3066 3066 3067 3067 3067 3067 3067 3067 3066 3066 3065 3065 3065 3065 3064 3064 3064 3064 3063 3063 3063 3063
3029 3029 3030 3031 3032 3033 3034 3035 3036 3037 3038 3039 3040 3041 3042 3043 3044 3045 3045 3046 3047 3048 3049 3050 3050 3051 3052 3054 3055 3055 3056 3057 3058 3058 3059 3059 3059 3060 3060 3060 3061 3062 3063 3064 3064 3064 3064 3064 3064 3064 3065 3065 3065 3065 3064 3064 3063 3063 3063 3062 3062 3062 3062 3061 3061 3061 3061 3061 3061
3026 3027 3028 3029 3030 3031 3032 3033 3034 3035 3036 3037 3038 3039 3040 3041 3042 3043 3043 3044 3045 3046 3047 3048 3049 3049 3050 3051 3052 3053 3054 3054 3055 3055 3055 3056 3057 3057 3057 3057 3059 3060 3061 3061 3061 3061 3061 3062 3062 3062 3062 3062 3062 3061 3061 3061 3061 3060 3060 3060 3060 3059 3059 3059 3059 3059 3060 3060 3060
3024 3025 3026 3027 3028 3029 3030 3031 3032 3033 3034 3035 3035 3036 3038 3039 3040 3040 3041 3042 3044 3045 3046 3047 3047 3047 3048 3049 3050 3050 3051 3052 3052 3052 3052 3052 3053 3054 3055 3055 3057 3058 3059 3059 3059 3059 3059 3059 3059 3060 3060 3060 3059 3059 3059 3058 3058 3058 3057 3057 3057 3057 3056 3056 3057 3057 3057 3057 3057
3022 3023 3024 3025 3025 3026 3027 3028 3029 3030 3031 3032 3033 3035 3035 3036 3037 3039 3040 3040 3042 3043 3044 3045 3045 3046 3046 3047 3047 3048 3049 3050 3050 3049 3049 3049 3050 3050 3052 3054 3055 3055 3056 3056 3056 3056 3057 3057 3057 3057 3057 3057 3056 3056 3056 3056 3055 3055 3055 3055 3055 3054 3054 3054 3055 3055 3055 3055 3055
3019 3020 3021 3022 3023 3024 3025 3026 3027 3028 3029 3030 3031 3032 3033 3035 3035 3037 3038 3039 3040 3041 3042 3043 3043 3044 3044 3045 3045 3045 3046 3047 3048 3047 3046 3046 3046 3048 3050 3052 3053 3053 3053 3053 3054 3054 3054 3054 3054 3054 3054 3054 3054 3054 3054 3053 3053 3053 3053 3052 3052 3052 3052 3052 3053 3053 3053 3053 3053
3017 3018 3019 3020 3020 3021 3023 3024 3025 3026 3027 3028 3029 3030 3031 3032 3033 3035 3035 3037 3038 3038 3039 3040 3041 3041 3042 3042 3043 3044 3044 3045 3045 3045 3045 3045 3045 3046 3048 3050 3050 3050 3051 3051 3051 3052 3052 3052 3052 3052 3052 3051 3051 3051 3051 3051 3051 3051 3050 3050 3050 3050 3050 3050 3051 3051 3051 3051 3051
3015 3015 3016 3017 3018 3019 3020 3021 3022 3023 3024 3025 3026 3028 3029 3030 3031 3032 3033 3034 3035 3036 3037 3037 3038 3039 3040 3040 3040 3041 3043 3043 3043 3043 3043 3043 3044 3045 3046 3047 3048 3048 3049 3049 3049 3049 3049 3050 3050 3049 3049 3049 3049 3049 3049 3049 3049 3049 3049 3048 3048 3048 3049 3049 3050 3050 3050 3049 3049
3013 3013 3014 3015 3015 3016 3018 3019 3020 3020 3021 3023 3024 3025 3026 3028 3029 3030 3030 3031 3033 3033 3034 3035 3035 3036 3037 3037 3038 3040 3041 3041 3041 3041 3041 3041 3043 3044 3044 3045 3045 3046 3046 3046 3047 3047 3047 3047 3047 3047 3047 3047 3047 3047 3047 3047 3047 3047 3046 3046 3046 3046 3047 3048 3048 3048 3047 3047 3046
3011 3011 3012 3012 3013 3014 3015 3016 3017 3018 3019 3020 3021 3023 3024 3025 3026 3027 3028 3029 3030 3031 3032 3032 3033 3033 3034 3035 3036 3038 3039 3039 3039 3039 3040 3040 3041 3042 3042 3043 3044 3044 3044 3044 3045 3045 3045 3045 3045 3045 3045 3045 3045 3045 3045 3045 3045 3045 3045 3044 3044 3045 3045 3046 3046 3045 3045 3045 3044
3009 3009 3010 3010 3011 3012 3013 3014 3015 3015 3017 3018 3019 3021 3022 3023 3024 3025 3026 3027 3028 3029 3030 3030 3030 3031 3032 3034 3035 3036 3036 3037 3037 3038 3038 3039 3039 3040 3040 3041 3042 3042 3042 3042 3043 3043 3043 3043 3044 3044 3044 3044 3043 3043 3044 3043 3043 3043 3043 3043 3043 3044 3044 3044 3044 3043 3043 3042 3041
3006 3007 3007 3008 3009 3010 3010 3011 3012 3013 3015 3016 3017 3019 3020 3021 3022 3023 3024 3025 3026 3027 3028 3029 3029 3030 3031 3032 3033 3034 3034 3035 3035 3036 3036 3037 3037 3038 3039 3039 3040 3040 3040 3040 3041 3041 3041 3042 3042 3042 3042 3041 3041 3041 3041 3041 3042 3041 3041 3041 3042 3042 3042 3042 3041 3041 3040 3039 3038
3004 3005 3005 3006 3007 3007 3008 3009 3010 3012 3013 3014 3015 3017 3018 3019 3020 3020 3022 3023 3024 3025 3026 3027 3028 3029 3030 3030 3031 3032 3032 3033 3034 3034 3035 3035 3036 3037 3037 3038 3038 3038 3038 3039 3039 3040 3040 3040 3040 3040 3040 3040 3040 3040 3040 3040 3040 3039 3039 3040 3040 3040 3040 3040 3039 3038 3037 3036 3035
3002 3003 3003 3004 3005 3005 3006 3008 3009 3010 3011 3012 3014 3015 3015 3016 3017 3019 3020 3021 3022 3023 3025 3025 3026 3027 3028 3029 3030 3030 3030 3031 3031 3032 3033 3034 3035 3035 3035 3036 3036 3036 3036 3037 3038 3038 3038 3038 3038 3038 3038 3038 3038 3038 3038 3038 3038 3038 3038 3038 3038 3038 3037 3037 3036 3035 3035 3034 3033
3000 3001 3001 3002 3003 3004 3005 3006 3007 3008 3010 3010 3011 3012 3013 3014 3015 3017 3018 3020 3021 3022 3023 3024 3025 3026 3027 3027 3028 3028 3029 3029 3030 3030 3031 3032 3033 3033 3034 3034 3034 3035 3035 3036 3036 3036 3037 3036 3036 3036 3036 3036 3036 3037 3036 3036 3036 3036 3036 3036 3036 3035 3035 3034 3034 3033 3032 3031 3030
2998 2999 2999 3000 3001 3002 3003 3004 3005 3006 3008 3009 3010 3010 3011 3012 3014 3015 3016 3018 3019 3020 3021 3023 3024 3025 3025 3025 3026 3026 3027 3027 3028 3029 3030 3030 3031 3031 3032 3032 3032 3033 3034 3035 3035 3035 3035 3035 3035 3035 3035 3035 3035 3035 3035 3035 3035 3035 3034 3034 3033 3033 3033 3032 3031 3030 3029 3028 3027
2996 2997 2998 2998 2999 3000 3001 3003 3004 3005 3006 3007 3008 3009 3010 3011 3012 3014 3015 3016 3018 3019 3020 3021 3022 3023 3023 3024 3024 3025 3025 3026 3027 3028 3028 3029 3029 3030 3030 3030 3031 3032 3032 3033 3033 3033 3034 3034 3034 3034 3034 3034 3034 3034 3034 3033 3033 3033 3032 3031 3031 3031 3030 3030 3029 3027 3026 3025 3024
2995 2995 2996 2997 2998 2999 3000 3001 3002 3003 3004 3005 3006 3008 3009 3010 3011 3012 3014 3015 3016 3018 3019 3020 3020 3021 3022 3022 3023 3023 3024 3025 3025 3026 3026 3027 3027 3028 3028 3029 3030 3030 3031 3031 3031 3032 3032 3032 3032 3032 3033 3033 3032 3032 3032 3032 3031 3031 3030 3030 3029 3029 3028 3027 3026 3025 3024 3023 3022
2993 2994 2994 2995 2996 2997 2998 2999 3000 3001 3003 3004 3005 3006 3007 3009 3010 3011 3012 3014 3015 3016 3017 3018 3019 3019 3020 3020 3021 3022 3022 3023 3024 3024 3025 3025 3025 3026 3027 3028 3028 3029 3029 3030 3030 3030 3030 3031 3031 3031 3032 3031 3031 3031 3030 3030 3029 3029 3028 3027 3027 3026 3025 3024 3023 3022 3021 3020 3019
2991 2992 2993 2994 2995 2995 2997 2998 2999 3000 3002 3003 3004 3005 3006 3007 3008 3010 3011 3012 3014 3015 3016 3016 3017 3018 3019 3019 3020 3020 3021 3022 3022 3023 3023 3024 3025 3025 3025 3026 3026 3027 3027 3028 3028 3029 3030 3030 3030 3030 3030 3030 3030 3029 3028 3027 3027 3026 3026 3025 3024 3023 3022 3021 3021 3020 3019 3018 3017
2990 2991 2992 2992 2993 2994 2995 2997 2998 2999 3000 3001 3002 3003 3004 3005 3007 3008 3010 3011 3012 3014 3015 3015 3016 3016 3017 3017 3018 3019 3020 3020 3020 3021 3022 3023 3023 3024 3024 3024 3025 3025 3026 3027 3027 3028 3029 3029 3030 3029 3029 3028 3027 3026 3026 3025 3025 3024 3023 3022 3021 3020 3020 3019 3018 3017 3016 3015 3014
2989 2990 2990 2991 2992 2993 2995 2995 2997 2998 2999 3000 3001 3002 3003 3004 3006 3007 3009 3010 3011 3012 3013 3014 3014 3015 3015 3016 3017 3017 3018 3019 3020 3020 3021 3021 3022 3022 3022 3023 3024 3025 3025 3026 3027 3028 3028 3028 3028 3028 3027 3026 3025 3024 3024 3023 3023 3022 3020 3020 3019 3018 3017 3017 3016 3015 3014 3013 3012
2988 2989 2990 2990 2991 2992 2993 2995 2995 2996 2997 2998 3000 3001 3002 3004 3005 3006 3008 3009 3010 3011 3012 3012 3012 3013 3014 3015 3015 3016 3017 3018 3019 3019 3020 3020 3020 3021 3022 3023 3024 3025 3025 3026 3026 3027 3027 3027 3026 3026 3025 3024 3023 3022 3022 3021 3020 3019 3018 3017 3017 3016 3015 3014 3014 3012 3011 3010 3009
2987 2988 2988 2989 2990 2991 2992 2993 2995 2995 2996 2997 2999 3000 3001 3003 3004 3005 3007 3008 3009 3009 3010 3010 3011 3011 3012 3013 3014 3015 3016 3017 3018 3018 3019 3019 3020 3021 3022 3023 3024 3025 3025 3025 3025 3025 3025 3025 3025 3024 3023 3022 3021 3020 3020 3019 3018 3017 3016 3015 3015 3014 3013 3012 3011 3010 3009 3008 3006
2985 2986 2987 2988 2989 2990 2991 2992 2993 2995 2996 2997 2998 3000 3001 3002 3003 3005 3005 3006 3006 3007 3007 3008 3009 3010 3011 3012 3014 3015 3015 3016 3017 3017 3018 3019 3020 3021 3022 3023 3024 3024 3024 3024 3024 3024 3024 3023 3022 3021 3020 3020 3019 3018 3017 3016 3015 3015 3014 3013 3013 3012 3011 3010 3009 3007 3006 3005 3004
2984 2984 2985 2986 2988 2989 2990 2991 2992 2994 2995 2996 2998 2999 3000 3001 3002 3003 3003 3004 3005 3005 3006 3007 3008 3010 3011 3012 3013 3014 3015 3015 3016 3017 3018 3019 3020 3021 3022 3022 3023 3023 3023 3023 3023 3022 3022 3021 3020 3020 3019 3018 3017 3016 3015 3014 3013 3012 3012 3011 3010 3010 3009 3007 3006 3005 3004 3002 3001
2982 2983 2984 2985 2987 2988 2989 2990 2991 2993 2994 2995 2997 2997 2998 2999 3000 3001 3002 3002 3003 3004 3005 3006 3008 3009 3010 3011 3012 3013 3014 3015 3016 3017 3018 3019 3020 3021 3021 3021 3022 3022 3021 3021 3021 3020 3020 3019 3018 3017 3016 3015 3014 3014 3013 3012 3011 3010 3010 3009 3008 3007 3006 3005 3003 3002 3001 3000 2998
2981 2982 2983 2985 2986 2987 2988 2989 2990 2992 2993 2994 2995 2996 2996 2997 2998 2999 3000 3001 3003 3004 3005 3006 3007 3009 3010 3010 3011 3012 3014 3015 3016 3017 3019 3019 3020 3020 3020 3020 3020 3020 3020 3019 3019 3018 3017 3017 3016 3015 3014 3013 3012 3011 3011 3010 3009 3009 3008 3007 3006 3005 3004 3002 3001 3000 2998 2996 2995
2980 2981 2983 2984 2985 2986 2987 2989 2990 2991 2992 2992 2993 2994 2995 2996 2997 2998 3000 3001 3002 3004 3005 3006 3007 3008 3009 3010 3011 3012 3014 3015 3017 3018 3018 3019 3019 3019 3019 3019 3019 3019 3018 3017 3017 3016 3015 3015 3014 3013 3012 3011 3010 3010 3009 3008 3007 3007 3006 3005 3004 3002 3001 3000 2998 2997 2995 2994 2992
2979 2980 2981 2983 2984 2985 2986 2987 2988 2989 2990 2991 2992 2993 2994 2995 2996 2997 2999 3000 3001 3003 3004 3005 3006 3007 3009 3010 3012 3013 3015 3016 3016 3017 3017 3018 3018 3018 3018 3018 3017 3017 3016 3015 3015 3014 3014 3013 3012 3012 3011 3010 3009 3008 3007 3006 3005 3005 3004 3003 3001 3000 2999 2997 2995 2994 2992 2990 2989